AirNav   Phillips 66 Aviation Fuel
 
 472 users online  

8KY3 Cummings Farms Airfield
Franklin, Kentucky, USA

GOING TO FRANKLIN?


FAA INFORMATION EFFECTIVE 06 DECEMBER 2018

Location

FAA Identifier: 8KY3
Lat/Long: 36-43-41.0000N / 086-43-32.0000W
36-43.683333N / 086-43.533333W
36.7280556 / -86.7255556
(estimated)
Elevation: 638 ft. / 194 m
From city: 7 miles W of FRANKLIN, KY
Time zone: UTC -6 (UTC -5 during Daylight Saving Time)
Zip code: 42202

Airport Operations

Airport use: Private use. Permission required prior to landing
Activation date: 03/2014
Control tower: no
ARTCC: MEMPHIS CENTER
FSS: LOUISVILLE FLIGHT SERVICE STATION
Attendance: UNATNDD
Wind indicator: yes
Segmented circle: no

Airport Communications

WX AWOS-3 at 1M5 (14 nm SE): 118.175 (615-325-4971)
WX AWOS-3 at M91 (15 nm SW): 120.675 (615-384-8206)

Nearby radio navigation aids

VOR radial/distance  VOR name  Freq  Var
BWGr226/18.1BOWLING GREEN VORTAC117.9002E
CKVr080/33.7CLARKSVILLE VOR/DME110.6001W
BNAr359/35.5NASHVILLE VORTAC114.1002W

 
NDB name  Hdg/Dist  Freq  Var  ID
NOORA236/14.823604WBW -... .--

Airport Services

Runway Information

Runway 7/25

Dimensions: 1800 x 55 ft. / 549 x 17 m
Surface: turf
RUNWAY 7  RUNWAY 25
Traffic pattern: leftleft
Displaced threshold: 500 ft.no
Obstructions: 25 ft. pline, lighted, 250 ft. from runway, 20:1 slope to clear
MARKER BALLS
none

Airport Ownership and Management from official FAA records

Ownership: Privately-owned
Owner: ROBERT CUMMINGS
5713 SULPHUR SPRINGS CHURCH RD
FRANKLIN, KY 42134
Phone 270-586-8276
Manager: ROBERT CUMMINGS
5713 SULPHUR SPRINGS CHURCH RD
FRANKLIN, KY 42134
Phone 270-586-8276

Airport Operational Statistics

Aircraft based on the field: 1
Single engine airplanes: 1
    

Instrument Procedures

There are no published instrument procedures at 8KY3.

Some nearby airports with instrument procedures:

4M7 - Russellville-Logan County Airport (6 nm NW)
1M5 - Portland Municipal Airport (14 nm SE)
M91 - Springfield Robertson County Airport (15 nm SW)
KBWG - Bowling Green-Warren County Regional Airport (20 nm NE)
KXNX - Sumner County Regional Airport (26 nm SE)
 
Loc | Ops | Rwys | IFR | FBO | Links
Com | Nav | Svcs | Stats | Notes


 
Aerial photo
No photo
 
Airport distance calculator
Flying to Cummings Farms Airfield? Find the distance to fly.

From to 8KY3

Sunrise and sunset
Times for 16-Dec-2018
 Local
(UTC-6)
 Zulu
(UTC)
Morning civil twilight06:2512:25
Sunrise06:5412:54
Sunset16:3122:31
Evening civil twilight17:0023:00

Current date and time
Zulu (UTC)  16-Dec-2018 11:48:56
Local (UTC-6)  16-Dec-2018 05:48:56
 
METAR
K1M5 
14nm SE 
161135Z AUTO 33005KT 6SM BR OVC007 06/05 A3009 RMK A01
KM91 
15nm SW 
161135Z AUTO 30006KT 10SM OVC011 06/05 A3011 RMK A01
KBWG 
21nm NE 
161053Z AUTO 33004KT 5SM BR OVC006 07/05 A3008 RMK AO2 SLP186 T00670050
KXNX 
26nm SE 
161135Z AUTO 31007KT 4SM BR OVC008 07/05 A3012 RMK A01
TAF
NOTAMs
Click for the latest NOTAMs
NOTAMs are issued by the DoD/FAA and will open in a separate window not controlled by AirNav.

 

 
 

Would you like to see your business listed on this page?

 If your business provides an interesting product or service to pilots, flight crews, aircraft, or users of the Cummings Farms Airfield, you should consider listing it here.  To start the listing process, click on the button below
 
Add a business
 

Other Pages about Cummings Farms Airfield

Update a link
 
Copyright © AirNav, LLC. All rights reserved. Privacy Policy  Contact